sat.trackr.live / text

‹ back to catalog

ONEWEB-0061

NORAD 45428 · 2020-020E

PAYLOAD ACTIVE UNKNOWN

§ Identity

Operator
Country
UK
Launch date
2020-03-21
Launch site
TYMSC
Launch vehicle
Mass (kg)
RCS (m²)

Purposes: comms

External: N2YO · Heavens-Above · Gunter

§ Orbital elements

Epoch: 2026-05-25T03:02:50.716032Z

Period
109.81 min
Inclination
87.8916°
Eccentricity
0.0001777
Mean motion
13.11415047 rev/d
Perigee alt
1,216.3 km
Apogee alt
1,219.0 km
Semi-major
7,595.8 km
B*
1.1444e-3
RAAN
25.6433°
Arg perigee
80.1651°
Mean anomaly
279.9678°
Rev number
29,960

§ Raw data

ONEWEB-00611 45428U 20020E   26145.12697588  .00000418  00000+0  11444-2 0  99992 45428  87.8916  25.6433 0001777  80.1651 279.9678 13.11415047299601

JSON: /api/v1/satellites/45428 · /tle

For live sub-satellite position, see the globe view (requires WebGL).

§ Visibility from observer

Set your observer location to see the next 7 days of passes ≥ 10°. The values pass through the URL so the page stays shareable.

No JS? Fill the form by hand. The geolocation button needs JavaScript.